Weather History for HEAT - October, 2013

Change the Weather History Date:

Friday, October 11, 2013

  Actual Average Record
Temperature  
Mean Temperature 76 °F -  
Max Temperature 91 °F 83 °F - ()
Min Temperature 60 °F 57 °F - ()
Cooling Degree Days 10    
Growing Degree Days 26 (Base 50)    
Moisture  
Dew Point 57 °F    
Average Humidity 56    
Maximum Humidity 94    
Minimum Humidity 23    
Precipitation  
Precipitation 0.00 in 0.00 in - ()
Sea Level Pressure  
Sea Level Pressure 30.04 in    
Wind  
Wind Speed 5 mph ()    
Max Wind Speed 12 mph    
Max Gust Speed -    
Visibility 4.9 miles    
Events      
T = Trace of Precipitation, MM = Missing Value Source: Averaged Metar Reports

Daily Weather History Graph

Daily Weather History Graph

Search for Another Location

Airport or City:

Trip Planner

Search our weather history database for the weather conditions in past years. The results will help you decide how hot, cold, wet, or windy it might be!

Date:

Astronomy

Oct. 11, 2013 Rise Set
Actual Time 5:53 AM EET 5:31 PM EET
Civil Twilight 5:30 AM EET 5:54 PM EET
Nautical Twilight 5:03 AM EET 6:21 PM EET
Astronomical Twilight 4:36 AM EET 6:48 PM EET
Moon 12:01 PM EET (10/11) 11:10 PM EET (10/11)
Length of Visible Light 12h 24m
Length of Day
11h 38m
Waxing Crescent, 44% of the Moon is Illuminated
Oct 11
Waxing Crescent
Oct 12
First Quarter
Oct 19
Full
Oct 27
Last Quarter
Nov 3
New

Hourly Weather History & Observations

Time (EET) Temp. Heat Index Dew Point Humidity Pressure Visibility Wind Dir Wind Speed Gust Speed Precip Events Conditions
12:00 AM 69.8 °F - 57.2 °F 64% 30.04 in - SW 6.9 mph - N/A   Clear
1:00 AM 68.0 °F - 57.2 °F 68% 30.04 in - NW 5.8 mph - N/A   Clear
2:00 AM 65 °F - 57 °F 67% 30.02 in 6 mi NW 4.6 mph - -  
2:00 AM 66.2 °F - 57.2 °F 73% 30.04 in - NW 4.6 mph - N/A   Clear
3:00 AM 64.4 °F - 57.2 °F 77% 30.06 in - NW 3.5 mph - N/A   Clear
4:00 AM 64.4 °F - 57.2 °F 77% 30.04 in - NW 2.3 mph - N/A   Clear
5:00 AM 60.8 °F - 59.0 °F 94% 30.04 in - WNW 3.5 mph - N/A   Clear
6:00 AM 60.8 °F - 57.2 °F 88% 30.06 in 4.3 mi WNW 4.6 mph - N/A   Unknown
7:00 AM 60.8 °F - 57.2 °F 88% 30.06 in 4.3 mi WNW 2.3 mph - N/A   Unknown
8:00 AM 64.4 °F - 59.0 °F 83% 30.06 in 4.3 mi NW 4.6 mph - N/A   Unknown
9:00 AM 68.0 °F - 59.0 °F 73% 30.09 in 4.3 mi NW 3.5 mph - N/A   Unknown
10:00 AM 69.8 °F - 59.0 °F 68% 30.06 in 4.3 mi NW 3.5 mph - N/A   Unknown
11:00 AM 77.0 °F - 59.0 °F 54% 30.06 in 4.3 mi NNW 4.6 mph - N/A   Unknown
12:00 PM 78.8 °F - 59.0 °F 51% 30.06 in - NW 4.6 mph - N/A   Clear
1:00 PM 86.0 °F 85.4 °F 59.0 °F 40% 30.04 in - NW 5.8 mph - N/A   Clear
2:00 PM 89 °F - 56 °F 23% 29.98 in 6 mi NNW 6.9 mph - -  
2:00 PM 89.6 °F 88.1 °F 57.2 °F 33% 30.01 in - NNW 6.9 mph - N/A   Clear
3:00 PM 89.6 °F 87.7 °F 55.4 °F 31% 30.01 in - NW 9.2 mph - N/A   Clear
4:00 PM 89.6 °F 87.7 °F 55.4 °F 31% 30.01 in - NNW 6.9 mph - N/A   Clear
5:00 PM 89.6 °F - 50.0 °F 26% 30.01 in - NW 11.5 mph - N/A   Clear
6:00 PM 87.8 °F - 50.0 °F 27% 30.04 in - NW 9.2 mph - N/A   Clear
7:00 PM 86.0 °F - 50.0 °F 29% 30.06 in - NW 8.1 mph - N/A   Clear
8:00 PM 79 °F - 62 °F 45% 30.02 in 6 mi NW 8.1 mph - -  
8:00 PM 78.8 °F - 55.4 °F 44% 30.04 in - NW 8.1 mph - N/A   Clear
9:00 PM 77.0 °F - 55.4 °F 47% 30.04 in - NW 5.8 mph - N/A   Clear
10:00 PM 75.2 °F - 55.4 °F 50% 30.06 in - NW 6.9 mph - N/A   Clear
11:00 PM 71.6 °F - 53.6 °F 53% 30.04 in - NW 9.2 mph - N/A   Clear